Location: Albany
(35.0000°S, 118.0000°E)
Time: 19:51:43
(UTC-04:00)

ISS - All Passes

Search period start: 24 October 2014 00:00
Search period end: 02 November 2014 23:00
Orbit: 412 x 416 km, 51.6° (Epoch: 24 October)

Date Brightness Start Highest point End Pass type
(mag) Time Alt. Az. Time Alt. Az. Time Alt. Az.
24 Oct - 10:48:58 10° NNE 10:50:49 14° NE 10:52:40 10° E night (unlit)
24 Oct - 12:23:57 10° WNW 12:27:12 45° SW 12:30:29 10° SE night (unlit)
24 Oct - 18:55:13 10° SW 18:58:29 44° SE 19:01:43 10° ENE daylight
24 Oct - 20:32:57 10° W 20:34:52 14° NW 20:36:47 10° NNW daylight
25 Oct - 11:34:39 10° NW 11:38:00 89° SW 11:41:24 10° SE night (unlit)
25 Oct - 13:13:29 10° SW 13:15:08 13° SSW 13:16:47 10° S visible
25 Oct - 18:06:18 10° SSW 18:09:12 26° SE 18:12:05 10° E daylight
25 Oct - 19:42:56 10° WSW 19:45:51 27° NW 19:48:44 10° N daylight
26 Oct - 10:45:38 10° NNW 10:48:51 44° NE 10:52:05 10° ESE night (unlit)
26 Oct - 12:23:12 10° WSW 12:25:42 19° SSW 12:28:12 10° SSE night (unlit)
26 Oct - 17:17:31 10° SSW 17:19:48 17° SSE 17:22:05 10° ESE daylight
26 Oct - 18:53:25 10° SW 18:56:44 55° NW 19:00:00 10° NNE daylight
27 Oct - 09:57:01 10° N 09:59:43 23° NE 10:02:26 10° ESE night (unlit)
27 Oct - 11:33:16 10° W 11:36:17 30° SW 11:39:20 10° SSE night (unlit)
27 Oct - 16:29:03 10° S 16:30:18 12° SSE 16:31:32 10° SE visible
27 Oct - 18:04:07 10° SW 18:07:30 73° SE 18:10:50 10° NE daylight
28 Oct - 09:09:18 10° NNE 09:10:37 12° NE 09:11:56 10° ENE night (unlit)
28 Oct - 10:43:37 10° WNW 10:46:55 54° SW 10:50:15 10° SE night (unlit)
28 Oct - 17:14:57 10° SSW 17:18:09 38° SE 17:21:19 10° ENE daylight
28 Oct - 18:52:19 10° W 18:54:36 17° NW 18:56:51 10° N daylight
29 Oct - 09:54:14 10° NW 09:57:35 76° NE 10:00:58 10° SE night (unlit)
29 Oct - 11:32:43 10° WSW 11:34:37 14° SSW 11:36:33 10° S night (unlit)
29 Oct - 16:25:55 10° SSW 16:28:41 23° SSE 16:31:26 10° E visible
29 Oct - 18:02:20 10° WSW 18:05:24 32° NW 18:08:26 10° NNE daylight
30 Oct - 09:05:10 10° NNW 09:08:17 36° NE 09:11:26 10° ESE night (unlit)
30 Oct - 10:42:23 10° W 10:45:02 21° SSW 10:47:43 10° SSE night (unlit)
30 Oct - 15:37:02 10° S 15:39:06 15° SSE 15:41:10 10° ESE visible
30 Oct - 17:12:44 10° SW 17:16:06 68° NW 17:19:25 10° NE daylight
31 Oct - 08:16:34 10° N 08:19:00 19° NE 08:21:28 10° E night (unlit)
31 Oct - 09:52:23 10° WNW 09:55:30 34° SW 09:58:38 10° SSE night (unlit)
31 Oct - 14:48:42 10° S 14:49:25 11° SSE 14:50:08 10° SE visible
31 Oct - 16:23:20 10° SW 16:26:41 60° SE 16:30:00 10° ENE visible
31 Oct - 18:02:13 10° WNW 18:02:56 11° NW 18:03:39 10° NW daylight
01 Nov - 09:02:39 10° NW 09:05:59 65° SW 09:09:21 10° SE night (unlit)
01 Nov - 10:42:14 10° SW 10:43:13 11° SSW 10:44:12 10° S night (unlit)
01 Nov - 15:34:03 10° SSW 15:37:09 32° SE 15:40:13 10° ENE visible
01 Nov - 17:11:06 10° W 17:13:40 20° NW 17:16:13 10° N daylight
02 Nov - 07:13:12 10° NW 07:16:30 62° NE 07:19:51 10° SE visible
02 Nov - 08:51:18 10° WSW 08:53:28 16° SSW 08:55:38 10° S visible
02 Nov - 13:44:54 10° SSW 13:47:30 20° SSE 13:50:05 10° E visible
02 Nov - 15:21:06 10° WSW 15:24:18 40° NW 15:27:27 10° NNE visible
